User: anonymous   Login
Location: Norwich
(52.6280°N, 1.3030°E)
Time: 05:26:43
(UTC+00:00)
Language:

APEX - Orbit

View from above orbital plane
View from above orbital plane
View from above satellite
View from above satellite

Ground track
Ground track

The orbit data is extracted from the following two-line orbital elements,

1 23191U 94046A   17056.17731668  .00009807  00000-0  33544-3 0  9993
2 23191  69.9238 118.7770 0609855  41.3028 323.2594 14.36089238100460
Epoch (UTC): 25 February 2017 04:15:20
Eccentricity: 0.0609855
inclination: 69.9238°
perigee height: 335 km
apogee height: 1207 km
right ascension of ascending node: 118.7770°
argument of perigee: 41.3028°
revolutions per day: 14.36089238
mean anomaly at epoch: 323.2594°
orbit number at epoch: 10046

The dashed part of the orbit path shows where the satellite is in the earth's shadow,  

DLR